Hourly Weather Roundup
Issued by NWS Central Illinois

Home | Current Version | Previous Version | Text Only | Print | Product List | Glossary On
Versions: 1 2 3 4 5 6 7 8 9 10 11 12 13 14 15 16 17 18 19 20 21 22 23 24 25 26 27 28 29 30 31 32 33 34 35 36 37 38 39 40 41 42 43 44 45 46 47 48 49 50
000
NZUS43 KILX 200810
HWRILX

AREA WEATHER ROUNDUP
NATIONAL WEATHER SERVICE, LINCOLN IL
200 AM CST MON FEB 20 2017


CITY           SKY/WX    TMP DP  RH WIND       PRES   REMARKS
BLOOMINGTON    CLOUDY    45  44  97 S9        30.09F FOG
CHAMPAIGN      FOG       49  47  93 S10       30.12S VSB 1/4
DECATUR        FOG       48  48 100 SE9       30.09F VSB 1/4
EFFINGHAM      FOG       49  49 100 E8        30.12F VSB 1/4
FLORA          FOG       47  47  97 E3        30.11F VSB 1/4
GALESBURG      PTCLDY    50  47  91 E3          N/A
JACKSONVILLE   CLOUDY    51  49  93 SE8       30.04S FOG
LACON          CLOUDY    47  46  96 SE5       30.07R FOG
LAWRENCEVILLE  FOG       41  40  96 E5        30.15R VSB<1/4
LITCHFIELD     CLOUDY    50  50 100 SE9       30.07R FOG
$$


CITY           SKY/WX    TMP DP  RH WIND       PRES   REMARKS
LINCOLN        DRZL/FOG  49  49 100 SE9       30.08S VSB 1/2
MACOMB         CLOUDY    50  48  93 SE8       30.04S FOG
MATTOON        FOG       49  49 100 SE9       30.11F VSB 1/4
MT CARMEL AP   FOG       43  42  97 CALM      30.14F VSB<1/4
OLNEY-NOBLE AP FOG       43  43 100 E6        30.12F VSB 1/4
PARIS          FOG       44  44 100 SE6       30.14F VSB<1/4
PEORIA         CLOUDY    51  49  92 SE6       30.06S FOG
PONTIAC        CLOUDY    45  44  98 SE8       30.11S FOG
RANTOUL        FOG       48  48  99 S8        30.12S VSB 1/4
SPRINGFIELD    CLOUDY    52  50  93 SE12      30.06S FOG
TAYLORVILLE    FOG       49  49 100 SE10      30.08S VSB 1/2
$$

...REGIONAL REPORTS...


CITY           SKY/WX    TMP DP  RH WIND       PRES   REMARKS
CHICAGO O`HARE CLOUDY    45  36  70 SE6       30.11F
KANKAKEE       PTCLDY    40  38  93 CALM      30.13F
MOLINE         CLOUDY    52  46  80 E5        30.01R
MOUNT STERLING PTCLDY    52  50  92 SE8       30.02R
MOUNT VERNON   CLOUDY    48  48 100 E5        30.10S FOG
PITTSFIELD     CLOUDY    52  50  93 SE5       30.04R
QUINCY         PTCLDY    53  49  86 SE7       30.00R
ROCKFORD       CLOUDY    50  43  77 SE9       30.08F
$$


CITY           SKY/WX    TMP DP  RH WIND       PRES   REMARKS
BURLINGTON     CLOUDY    55  51  86 S10       30.00R
CEDAR RAPIDS   PTCLDY    53  49  86 SE9       29.95F
DES MOINES     CLOUDY    60  47  61 SE9       29.88F
KIRKSVILLE     CLOUDY    53  49  86 SE7       29.96S
OTTUMWA        PTCLDY    59  51  75 S13       29.93F
ST LOUIS       PTCLDY    54  50  86 SE8       30.05R
$$


CITY           SKY/WX    TMP DP  RH WIND       PRES   REMARKS
TERRE HAUTE    FOG       45  43  93 SE5       30.15S VSB 1/4
EVANSVILLE     FOG       43  41  93 NE6       30.14F VSB 1/4
INDIANAPOLIS   CLOUDY    44  43  96 CALM      30.16R FOG
LAFAYETTE      PTCLDY    41  40  96 E5        30.15R FOG
MADISON        PTCLDY    44  35  70 SE5       30.06F
MILWAUKEE      CLOUDY    37  32  82 CALM      30.14S
$$





USA.gov is the U.S. government's official web portal to all federal, state and local government web resources and services.